Regional Weather Roundup
Issued by NWS

Home | Current Version | Previous Version | Graphics & Text | Print | Product List | Glossary On
Versions: 1 2 3 4 5 6 7 8 9 10 11 12 13 14 15 16 17 18 19 20 21 22 23 24 25 26 27 28 29 30 31 32 33 34 35 36 37 38 39 40 41 42 43 44 45 46 47 48 49 50
000
ASUS43 KIND 300809
RWRIN

WEATHER ROUNDUP FOR INDIANA
NATIONAL WEATHER SERVICE INDIANAPOLIS IN
400 AM EDT MON MAY 30 2016

NOTE: "FAIR" INDICATES FEW OR NO CLOUDS BELOW 12,000 FEET WITH NO
SIGNIFICANT WEATHER AND/OR OBSTRUCTIONS TO VISIBILITY.

* - STATION DOES NOT REPORT WEATHER SUCH AS PRECIPITATION OR FOG.

+ - STATION NOT QUALITY CONTROLLED BY THE NATIONAL WEATHER SERVICE.
    USE DATA WITH CAUTION...ESPECIALLY DEWPOINT AND RELATIVE
    HUMIDITY OBSERVATIONS.

INZ001>003-010>013-019-020-300900-
NORTHWEST INDIANA

CITY           SKY/WX    TMP DP  RH WIND       PRES   REMARKS
GARY /AIRPORT/ CLEAR     61  61 100 CALM      30.01F
KNOX *+        CLEAR     61  52  72 CALM      30.01S
LA PORTE +     CLEAR     62  59  88 CALM      30.02S
MICHIGAN CITY+ CLEAR     59  59 100 CALM      30.01F
MONTICELLO +   CLEAR     63  54  72 CALM      30.02S
RENSSELAER +   CLEAR     63  59  88 CALM      30.03S
VALPARAISO     CLEAR     64  56  75 W6        30.02S

$$

LMZ046-743>745-300900-
SOUTHERN LAKE MICHIGAN

STATION/POSITION TIME  TEMP    WIND        PRES    WAVE
                       AIR SEA DIR/SP/G            HT
                 (UTC) (F)     (DEG/KT/KT) (MB)    (FT)
BURNS HARBOR     0800   67     200/  6/  8 1016.3S
MICHIGAN CITY    0700   69     180/  8/  9   N/A
5NW MICH CITY    0800   62 59  220/  6/  8   N/A     1

$$

INZ004-005-014>016-021>024-300900-
NORTH CENTRAL INDIANA

CITY           SKY/WX    TMP DP  RH WIND       PRES   REMARKS
GOSHEN         CLEAR     59  54  83 CALM      30.01S
LOGANSPORT +   CLEAR     63  54  72 W5        30.03S
PERU/GRISSOM   PTCLDY    62  55  79 SW3       30.02S
ROCHESTER +    PTCLDY    63  59  88 CALM      30.03R
SOUTH BEND     CLEAR     59  55  87 CALM      30.02S
WARSAW +       PTCLDY    59  57  94 CALM      30.02S

$$

INZ006>009-017-018-025>027-300900-
NORTHEAST INDIANA

CITY           SKY/WX    TMP DP  RH WIND       PRES   REMARKS
ANGOLA *+        N/A     57  57 100 CALM      30.01S
AUBURN +       CLEAR     61  55  82 CALM      30.02F
FORT WAYNE     MOCLDY    60  55  83 SW5       30.02S
HUNTINGTON +   CLEAR    N/A N/A N/A CALM      30.02S

$$

INZ028-029-035-036-043>045-051>053-300900-
WEST CENTRAL INDIANA

CITY           SKY/WX    TMP DP  RH WIND       PRES   REMARKS
CRAWFORDSVL +  CLEAR     59  57  94 CALM      30.04S
GREENCASTLE +  CLEAR     61  59  94 CALM      30.04F
LAFAYETTE      CLEAR     60  57  89 CALM      30.02S
TERRE HAUTE    CLEAR     61  58  90 CALM      30.04S

$$

INZ030>032-037>040-046>048-054>057-064-065-300900-
CENTRAL INDIANA

CITY           SKY/WX    TMP DP  RH WIND       PRES   REMARKS
CP ATTERBURY + CLOUDY    61  59  94 CALM      30.05R
FISHERS *+     CLOUDY    59  59 100 CALM      30.04
FRANKFORT +      N/A     61  50  67 NW5       30.05S
GREENWOOD *+   CLEAR     63  63 100 CALM      30.04S
INDIANAPOLIS   PTCLDY    63  57  81 W5        30.02S
-EAGLE CREEK   CLEAR     68  57  68 NW3       30.03S
KOKOMO *+      CLOUDY    63  54  72 SW3       30.03S
MARION +       PTCLDY    62  56  79 CALM      30.04S
SHELBYVILLE    MOCLDY    65  61  87 CALM      30.03R
ZIONSVILLE +   CLEAR     60  56  85 NW5       30.05S

$$

INZ033-034-041-042-049-050-058-059-300900-
EAST CENTRAL INDIANA

CITY           SKY/WX    TMP DP  RH WIND       PRES   REMARKS
MUNCIE         CLOUDY    62  55  77 CALM      30.04R

$$

INZ060-061-067>069-081>083-085>088-300900-
SOUTHWEST INDIANA

CITY           SKY/WX    TMP DP  RH WIND       PRES   REMARKS
EVANSVILLE     CLEAR     63  60  90 SW5       30.04S
HUNTINGBURG *+ PTCLDY    64  61  88 CALM      30.04F
WASHINGTON +   CLEAR     63  63 100 NW3       30.03S

$$

INZ062-063-066-070>080-084-089>092-300900-
SOUTH CENTRAL AND SOUTHEAST INDIANA

CITY           SKY/WX    TMP DP  RH WIND       PRES   REMARKS
BEDFORD +      CLEAR     63  63 100 CALM      30.04S
BLOOMINGTON    CLOUDY    62  59  90 CALM      30.04S
MADISON *+     MOCLDY    64  63  94 CALM      30.06S
NORTH VERNON + MOCLDY   N/A N/A N/A CALM      30.05R HAZE
SEYMOUR +      CLOUDY    66  64  94 CALM      30.03S

$$





USA.gov is the U.S. government's official web portal to all federal, state and local government web resources and services.